| time (UTC) | temp F | wind direction | speed MPH | gust MPH | rain 1hr in | rain 24hr in | rain mn in | humidity % | barometer mb |
| 20260506153616 | 51 | 356 | 0.0 | 3.0 | 0.00 | 0.00 | 0.00 | 92 | 1019.1 |
| 20260506153114 | 51 | 356 | 0.0 | 3.0 | 0.00 | 0.00 | 0.00 | 92 | 1019.1 |
| 20260506152611 | 51 | 356 | 0.0 | 3.0 | 0.00 | 0.00 | 0.00 | 92 | 1019.0 |
| 20260506152109 | 51 | 261 | 0.0 | 0.0 | 0.00 | 0.00 | 0.00 | 94 | 1019.1 |
| 20260506151607 | 51 | 261 | 0.0 | 0.0 | 0.00 | 0.00 | 0.00 | 94 | 1018.9 |
| 20260506151103 | 51 | 261 | 0.0 | 0.0 | 0.00 | 0.00 | 0.00 | 94 | 1018.9 |
| 20260506150600 | 51 | 261 | 0.0 | 0.0 | 0.00 | 0.00 | 0.00 | 94 | 1018.7 |
| 20260506150057 | 51 | 261 | 0.0 | 0.0 | 0.00 | 0.00 | 0.00 | 94 | 1018.6 |
| 20260506145554 | 51 | 261 | 0.0 | 0.0 | 0.00 | 0.00 | 0.00 | 94 | 1018.5 |
| 20260506145051 | 51 | 261 | 0.0 | 0.0 | 0.00 | 0.00 | 0.00 | 94 | 1018.5 |
| 20260506144547 | 51 | 286 | 0.0 | 0.0 | 0.00 | 0.00 | 0.00 | 94 | 1018.6 |
| 20260506144045 | 51 | 270 | 2.0 | 2.0 | 0.00 | 0.00 | 0.00 | 94 | 1018.5 |
| 20260506143542 | 51 | 221 | 4.0 | 4.0 | 0.00 | 0.00 | 0.00 | 94 | 1018.3 |
| 20260506143041 | 50 | 206 | 0.0 | 0.0 | 0.00 | 0.00 | 0.00 | 95 | 1018.3 |
| 20260506142538 | 50 | 206 | 0.0 | 0.0 | 0.00 | 0.00 | 0.00 | 95 | 1018.4 |
| 20260506142036 | 50 | 206 | 0.0 | 0.0 | 0.00 | 0.00 | 0.00 | 95 | 1018.3 |
| 20260506141533 | 50 | 206 | 0.0 | 0.0 | 0.00 | 0.00 | 0.00 | 95 | 1018.3 |
| 20260506141032 | 50 | 206 | 0.0 | 0.0 | 0.00 | 0.00 | 0.00 | 95 | 1018.1 |
| 20260506140529 | 50 | 206 | 0.0 | 0.0 | 0.00 | 0.00 | 0.00 | 95 | 1018.2 |
| 20260506140026 | 50 | 206 | 0.0 | 0.0 | 0.00 | 0.00 | 0.00 | 95 | 1018.4 |
| 20260506135523 | 50 | 206 | 0.0 | 0.0 | 0.00 | 0.00 | 0.00 | 95 | 1018.1 |
| 20260506135019 | 50 | 206 | 0.0 | 0.0 | 0.00 | 0.00 | 0.00 | 95 | 1018.0 |
| 20260506134515 | 50 | 206 | 0.0 | 0.0 | 0.00 | 0.00 | 0.00 | 95 | 1018.1 |
| 20260506134012 | 50 | 279 | 0.0 | 0.0 | 0.00 | 0.00 | 0.00 | 95 | 1018.0 |
| 20260506133509 | 50 | 279 | 0.0 | 0.0 | 0.00 | 0.00 | 0.00 | 95 | 1017.9 |
| 20260506133006 | 50 | 279 | 0.0 | 0.0 | 0.00 | 0.00 | 0.00 | 95 | 1018.0 |
| 20260506132503 | 50 | 283 | 1.0 | 1.0 | 0.00 | 0.00 | 0.00 | 96 | 1017.9 |
| 20260506132000 | 50 | 283 | 1.0 | 1.0 | 0.00 | 0.00 | 0.00 | 96 | 1017.9 |
| 20260506131457 | 50 | 262 | 0.0 | 1.0 | 0.00 | 0.00 | 0.00 | 95 | 1017.9 |
| 20260506130954 | 50 | 262 | 0.0 | 1.0 | 0.00 | 0.00 | 0.00 | 95 | 1017.9 |
| 20260506130450 | 50 | 262 | 0.0 | 1.0 | 0.00 | 0.00 | 0.00 | 95 | 1017.7 |
| 20260506125948 | 50 | 262 | 0.0 | 1.0 | 0.00 | 0.00 | 0.00 | 95 | 1017.9 |
| 20260506125446 | 50 | 262 | 0.0 | 1.0 | 0.00 | 0.00 | 0.00 | 95 | 1017.7 |
| 20260506124944 | 50 | 262 | 0.0 | 1.0 | 0.00 | 0.00 | 0.00 | 95 | 1017.7 |
| 20260506124441 | 50 | 262 | 0.0 | 1.0 | 0.00 | 0.00 | 0.00 | 95 | 1017.8 |
| 20260506123939 | 50 | 262 | 0.0 | 1.0 | 0.00 | 0.00 | 0.00 | 95 | 1017.7 |
| 20260506123437 | 51 | 337 | 0.0 | 1.0 | 0.00 | 0.00 | 0.00 | 95 | 1017.8 |
| 20260506122934 | 51 | 337 | 0.0 | 1.0 | 0.00 | 0.00 | 0.00 | 95 | 1017.7 |
| 20260506122431 | 51 | 337 | 0.0 | 1.0 | 0.00 | 0.00 | 0.00 | 95 | 1017.9 |
| 20260506121929 | 51 | 337 | 0.0 | 1.0 | 0.00 | 0.00 | 0.00 | 95 | 1017.7 |
| 20260506121426 | 51 | 337 | 0.0 | 1.0 | 0.00 | 0.00 | 0.00 | 95 | 1017.7 |
| 20260506120923 | 51 | 337 | 0.0 | 1.0 | 0.00 | 0.00 | 0.00 | 95 | 1018.1 |
| 20260506120420 | 51 | 337 | 0.0 | 1.0 | 0.00 | 0.00 | 0.00 | 95 | 1018.0 |
| 20260506115917 | 51 | 337 | 0.0 | 1.0 | 0.00 | 0.00 | 0.00 | 95 | 1017.8 |
| 20260506115415 | 51 | 337 | 0.0 | 1.0 | 0.00 | 0.00 | 0.00 | 95 | 1017.8 |
| 20260506114914 | 51 | 337 | 0.0 | 1.0 | 0.00 | 0.00 | 0.00 | 95 | 1017.7 |
| 20260506114411 | 51 | 278 | 1.0 | 2.0 | 0.00 | 0.00 | 0.00 | 95 | 1017.7 |
| 20260506113910 | 51 | 322 | 0.0 | 2.0 | 0.00 | 0.00 | 0.00 | 95 | 1017.7 |
| 20260506113407 | 51 | 322 | 0.0 | 2.0 | 0.00 | 0.00 | 0.00 | 95 | 1017.5 |
| 20260506112903 | 51 | 322 | 0.0 | 2.0 | 0.00 | 0.00 | 0.00 | 95 | 1017.5 |
| 20260506112400 | 51 | 322 | 0.0 | 2.0 | 0.00 | 0.00 | 0.00 | 95 | 1017.6 |
| 20260506111857 | 51 | 303 | 0.0 | 2.0 | 0.00 | 0.00 | 0.00 | 95 | 1017.4 |
| 20260506111356 | 51 | 303 | 0.0 | 2.0 | 0.00 | 0.00 | 0.00 | 95 | 1017.4 |
| 20260506110853 | 51 | 303 | 0.0 | 2.0 | 0.00 | 0.00 | 0.00 | 95 | 1017.3 |
| 20260506110350 | 51 | 328 | 0.0 | 1.0 | 0.00 | 0.00 | 0.00 | 95 | 1017.1 |
| 20260506105847 | 51 | 291 | 1.0 | 1.0 | 0.00 | 0.00 | 0.00 | 95 | 1017.4 |
| 20260506105343 | 51 | 291 | 1.0 | 1.0 | 0.00 | 0.00 | 0.00 | 95 | 1017.2 |
| 20260506104841 | 51 | 291 | 1.0 | 1.0 | 0.00 | 0.00 | 0.00 | 95 | 1017.1 |
| 20260506104338 | 51 | 291 | 1.0 | 1.0 | 0.00 | 0.00 | 0.00 | 95 | 1017.1 |
| 20260506103836 | 51 | 291 | 1.0 | 1.0 | 0.00 | 0.00 | 0.00 | 95 | 1017.2 |
| 20260506103333 | 51 | 291 | 1.0 | 1.0 | 0.00 | 0.00 | 0.00 | 95 | 1017.1 |
| 20260506102830 | 51 | 291 | 1.0 | 1.0 | 0.00 | 0.00 | 0.00 | 95 | 1016.9 |
| 20260506102328 | 51 | 291 | 1.0 | 1.0 | 0.00 | 0.00 | 0.00 | 95 | 1017.0 |
| 20260506101825 | 51 | 305 | 2.0 | 3.0 | 0.00 | 0.00 | 0.00 | 95 | 1016.5 |
| 20260506101321 | 51 | 305 | 2.0 | 3.0 | 0.00 | 0.00 | 0.00 | 95 | 1016.9 |
| 20260506100819 | 51 | 320 | 0.0 | 2.0 | 0.00 | 0.00 | 0.00 | 95 | 1016.6 |
| 20260506100317 | 51 | 320 | 0.0 | 2.0 | 0.00 | 0.00 | 0.00 | 95 | 1016.7 |
| 20260506095815 | 51 | 300 | 0.0 | 1.0 | 0.00 | 0.00 | 0.00 | 95 | 1016.9 |
| 20260506095312 | 51 | 300 | 0.0 | 1.0 | 0.00 | 0.00 | 0.00 | 95 | 1016.7 |
| 20260506094809 | 51 | 297 | 1.0 | 2.0 | 0.00 | 0.00 | 0.00 | 95 | 1016.9 |
| 20260506094308 | 51 | 309 | 2.0 | 2.0 | 0.00 | 0.00 | 0.00 | 95 | 1016.6 |
| 20260506093805 | 51 | 276 | 1.0 | 1.0 | 0.00 | 0.00 | 0.00 | 95 | 1016.7 |
| 20260506093302 | 51 | 315 | 2.0 | 2.0 | 0.00 | 0.00 | 0.00 | 95 | 1016.8 |
| 20260506092800 | 51 | 304 | 0.0 | 2.0 | 0.00 | 0.00 | 0.00 | 95 | 1016.6 |
| 20260506092258 | 51 | 304 | 0.0 | 2.0 | 0.00 | 0.00 | 0.00 | 95 | 1016.7 |
| 20260506091755 | 51 | 283 | 0.0 | 1.0 | 0.00 | 0.00 | 0.00 | 95 | 1016.7 |
| 20260506091252 | 51 | 283 | 0.0 | 1.0 | 0.00 | 0.00 | 0.00 | 95 | 1016.7 |
| 20260506090750 | 51 | 283 | 0.0 | 1.0 | 0.00 | 0.00 | 0.00 | 95 | 1016.7 |
| 20260506090247 | 51 | 286 | 0.0 | 1.0 | 0.00 | 0.00 | 0.00 | 95 | 1016.7 |
| 20260506085743 | 51 | 294 | 0.0 | 0.0 | 0.00 | 0.00 | 0.00 | 96 | 1016.4 |
| 20260506085240 | 51 | 294 | 0.0 | 0.0 | 0.00 | 0.00 | 0.00 | 96 | 1016.5 |
| 20260506084736 | 51 | 294 | 0.0 | 0.0 | 0.00 | 0.00 | 0.00 | 96 | 1016.6 |
| 20260506084233 | 51 | 254 | 0.0 | 1.0 | 0.00 | 0.00 | 0.00 | 96 | 1016.7 |
| 20260506083730 | 51 | 340 | 0.0 | 0.0 | 0.00 | 0.00 | 0.00 | 97 | 1016.4 |
| 20260506083227 | 51 | 340 | 0.0 | 0.0 | 0.00 | 0.00 | 0.00 | 97 | 1016.4 |
| 20260506082725 | 51 | 340 | 0.0 | 0.0 | 0.00 | 0.00 | 0.00 | 97 | 1016.5 |
| 20260506082220 | 51 | 340 | 0.0 | 0.0 | 0.00 | 0.00 | 0.00 | 97 | 1016.6 |
| 20260506081718 | 51 | 342 | 1.0 | 2.0 | 0.00 | 0.00 | 0.00 | 98 | 1016.4 |
| 20260506081215 | 51 | 342 | 1.0 | 2.0 | 0.00 | 0.00 | 0.00 | 98 | 1016.4 |
| 20260506080713 | 51 | 342 | 1.0 | 2.0 | 0.00 | 0.00 | 0.00 | 98 | 1016.4 |
| 20260506080209 | 51 | 342 | 1.0 | 2.0 | 0.00 | 0.00 | 0.00 | 98 | 1016.4 |
| 20260506073154 | 50 | 279 | 0.0 | 0.0 | 0.00 | 0.00 | 0.00 | 99 | 1015.9 |
| 20260506072650 | 50 | 279 | 0.0 | 0.0 | 0.00 | 0.00 | 0.00 | 99 | 1015.8 |
| 20260506072148 | 50 | 279 | 0.0 | 0.0 | 0.00 | 0.00 | 0.00 | 99 | 1016.0 |
| 20260506071645 | 50 | 279 | 0.0 | 0.0 | 0.00 | 0.00 | 0.00 | 99 | 1016.0 |
| 20260506071143 | 50 | 261 | 0.0 | 0.0 | 0.00 | 0.00 | 0.00 | 98 | 1015.9 |
| 20260506070640 | 50 | 261 | 0.0 | 0.0 | 0.00 | 0.00 | 0.00 | 98 | 1015.8 |
| 20260506070137 | 50 | 261 | 0.0 | 0.0 | 0.00 | 0.00 | 0.00 | 98 | 1015.7 |
| 20260506062451 | 50 | 261 | 0.0 | 0.0 | 0.00 | 0.00 | 0.00 | 98 | 1015.6 |
| 20260506061947 | 50 | 261 | 0.0 | 0.0 | 0.00 | 0.00 | 0.00 | 98 | 1015.6 |
| 20260506061443 | 49 | 260 | 0.0 | 0.0 | 0.00 | 0.00 | 0.00 | 95 | 1015.6 |
| 20260506060942 | 49 | 260 | 0.0 | 0.0 | 0.00 | 0.00 | 0.00 | 94 | 1015.5 |
| 20260506060440 | 49 | 260 | 0.0 | 0.0 | 0.00 | 0.00 | 0.00 | 94 | 1015.5 |
| 20260506051412 | 50 | 203 | 0.0 | 2.0 | 0.00 | 0.00 | 0.00 | 96 | 1015.3 |
| 20260506050908 | 50 | 203 | 0.0 | 2.0 | 0.00 | 0.00 | 0.00 | 96 | 1015.6 |
| 20260506050406 | 50 | 203 | 0.0 | 2.0 | 0.00 | 0.00 | 0.00 | 96 | 1015.6 |
| 20260506044856 | 50 | 203 | 0.0 | 2.0 | 0.00 | 0.00 | 0.00 | 96 | 1015.6 |
| 20260506044354 | 51 | 342 | 1.0 | 2.0 | 0.00 | 0.00 | 0.00 | 93 | 1015.5 |
| 20260506043851 | 51 | 220 | 2.0 | 3.0 | 0.00 | 0.00 | 0.00 | 93 | 1015.6 |
| 20260506043348 | 50 | 190 | 1.0 | 3.0 | 0.00 | 0.00 | 0.00 | 93 | 1015.2 |
| 20260506042846 | 51 | 269 | 1.0 | 3.0 | 0.00 | 0.00 | 0.00 | 93 | 1015.2 |
| 20260506042345 | 51 | 239 | 0.0 | 1.0 | 0.00 | 0.00 | 0.00 | 93 | 1015.1 |
| 20260506041844 | 50 | 265 | 0.0 | 1.0 | 0.00 | 0.00 | 0.00 | 93 | 1015.2 |
| 20260506041340 | 51 | 20 | 0.0 | 1.0 | 0.00 | 0.00 | 0.00 | 93 | 1015.0 |
| 20260506040837 | 51 | 350 | 0.0 | 3.0 | 0.00 | 0.00 | 0.00 | 93 | 1014.9 |
| 20260506040335 | 51 | 284 | 0.0 | 2.0 | 0.00 | 0.00 | 0.00 | 93 | 1015.0 |
| 20260506035831 | 51 | 25 | 0.0 | 0.0 | 0.00 | 0.00 | 0.00 | 92 | 1014.6 |
| 20260506035328 | 51 | 25 | 0.0 | 1.0 | 0.00 | 0.00 | 0.00 | 92 | 1014.7 |
| 20260506034825 | 51 | 234 | 0.0 | 1.0 | 0.00 | 0.00 | 0.00 | 92 | 1014.6 |
| 20260506034323 | 52 | 234 | 1.0 | 1.0 | 0.00 | 0.00 | 0.00 | 92 | 1014.6 |
| 20260506033819 | 52 | 234 | 1.0 | 2.0 | 0.00 | 0.00 | 0.00 | 92 | 1014.5 |
| 20260506032455 | 54 | 237 | 2.0 | 2.0 | 0.00 | 0.00 | 0.00 | 87 | 1014.4 |
| 20260506031951 | 54 | 237 | 2.0 | 2.0 | 0.00 | 0.00 | 0.00 | 87 | 1014.4 |
| 20260506031448 | 54 | 237 | 2.0 | 2.0 | 0.00 | 0.00 | 0.00 | 87 | 1014.3 |
| 20260506030946 | 54 | 237 | 2.0 | 2.0 | 0.00 | 0.00 | 0.00 | 87 | 1014.3 |
| 20260506030444 | 54 | 237 | 2.0 | 2.0 | 0.00 | 0.00 | 0.00 | 87 | 1014.4 |
| 20260506025940 | 54 | 237 | 2.0 | 2.0 | 0.00 | 0.00 | 0.00 | 87 | 1014.4 |
| 20260506024518 | 54 | 237 | 2.0 | 2.0 | 0.00 | 0.00 | 0.00 | 87 | 1014.4 |
| 20260506024014 | 54 | 237 | 2.0 | 2.0 | 0.00 | 0.00 | 0.00 | 87 | 1014.4 |
| 20260506023510 | 54 | 237 | 2.0 | 2.0 | 0.00 | 0.00 | 0.00 | 87 | 1014.3 |
| 20260506023008 | 54 | 237 | 2.0 | 2.0 | 0.00 | 0.00 | 0.00 | 87 | 1014.4 |
| 20260506022505 | 55 | 287 | 2.0 | 2.0 | 0.00 | 0.00 | 0.00 | 86 | 1014.3 |
| 20260506022002 | 55 | 287 | 2.0 | 2.0 | 0.00 | 0.00 | 0.00 | 86 | 1014.3 |
| 20260506021500 | 55 | 287 | 2.0 | 2.0 | 0.00 | 0.00 | 0.00 | 86 | 1014.4 |
| 20260506020957 | 58 | 270 | 3.0 | 4.0 | 0.00 | 0.00 | 0.00 | 81 | 1014.6 |
| 20260506020454 | 58 | 270 | 3.0 | 4.0 | 0.00 | 0.00 | 0.00 | 81 | 1014.5 |
| 20260506015951 | 58 | 270 | 3.0 | 4.0 | 0.00 | 0.00 | 0.00 | 81 | 1014.5 |
| 20260506015449 | 58 | 270 | 3.0 | 4.0 | 0.00 | 0.00 | 0.00 | 81 | 1014.4 |
| 20260506014946 | 58 | 270 | 3.0 | 4.0 | 0.00 | 0.00 | 0.00 | 81 | 1014.3 |
| 20260506014442 | 58 | 270 | 3.0 | 4.0 | 0.00 | 0.00 | 0.00 | 81 | 1014.3 |
| 20260506013939 | 58 | 270 | 3.0 | 4.0 | 0.00 | 0.00 | 0.00 | 81 | 1014.3 |
| 20260506013437 | 59 | 332 | 4.0 | 6.0 | 0.00 | 0.00 | 0.00 | 80 | 1014.6 |
| 20260506012933 | 58 | 270 | 2.0 | 3.0 | 0.00 | 0.00 | 0.00 | 81 | 1014.6 |
| 20260506012430 | 58 | 242 | 7.0 | 8.0 | 0.00 | 0.00 | 0.00 | 79 | 1014.4 |
| 20260506011927 | 59 | 241 | 2.0 | 3.0 | 0.00 | 0.00 | 0.00 | 80 | 1014.4 |
| 20260506011424 | 58 | 168 | 4.0 | 4.0 | 0.00 | 0.00 | 0.00 | 79 | 1014.5 |
| 20260506010921 | 58 | 236 | 2.0 | 10.0 | 0.00 | 0.00 | 0.00 | 80 | 1014.3 |
| 20260506010420 | 59 | 327 | 3.0 | 4.0 | 0.00 | 0.00 | 0.00 | 78 | 1014.3 |
| 20260506005915 | 59 | 295 | 2.0 | 3.0 | 0.00 | 0.00 | 0.00 | 79 | 1014.5 |
| 20260506005414 | 59 | 342 | 1.0 | 6.0 | 0.00 | 0.00 | 0.00 | 78 | 1014.5 |
| 20260506004908 | 59 | 309 | 3.0 | 7.0 | 0.00 | 0.00 | 0.00 | 79 | 1014.5 |
| 20260506004407 | 60 | 303 | 6.0 | 8.0 | 0.00 | 0.00 | 0.00 | 77 | 1014.4 |
| 20260506003902 | 60 | 244 | 1.0 | 3.0 | 0.00 | 0.00 | 0.00 | 77 | 1014.2 |
| 20260506003359 | 59 | 275 | 2.0 | 7.0 | 0.00 | 0.00 | 0.00 | 78 | 1014.4 |
| 20260506002855 | 59 | 275 | 3.0 | 10.0 | 0.00 | 0.00 | 0.00 | 80 | 1014.6 |
| 20260506002351 | 59 | 255 | 0.0 | 9.0 | 0.00 | 0.00 | 0.00 | 79 | 1014.6 |
| 20260506001847 | 59 | 332 | 1.0 | 8.0 | 0.00 | 0.00 | 0.00 | 78 | 1014.6 |
| 20260506001344 | 59 | 308 | 2.0 | 3.0 | 0.00 | 0.00 | 0.00 | 79 | 1014.7 |
| 20260506000841 | 59 | 159 | 1.0 | 10.0 | 0.00 | 0.00 | 0.00 | 81 | 1014.7 |
| 20260506000340 | 59 | 318 | 3.0 | 8.0 | 0.00 | 0.00 | 0.00 | 79 | 1014.7 |
| 20260505235836 | 59 | 252 | 2.0 | 7.0 | 0.00 | 0.00 | 0.00 | 80 | 1014.8 |
| 20260505235333 | 58 | 345 | 1.0 | 7.0 | 0.00 | 0.00 | 0.00 | 80 | 1014.7 |
| 20260505234830 | 58 | 337 | 1.0 | 8.0 | 0.00 | 0.00 | 0.00 | 79 | 1014.9 |
| 20260505234328 | 59 | 337 | 6.0 | 9.0 | 0.00 | 0.00 | 0.00 | 79 | 1015.0 |
| 20260505233825 | 59 | 262 | 6.0 | 10.0 | 0.00 | 0.00 | 0.00 | 78 | 1014.9 |
| 20260505233322 | 59 | 317 | 2.0 | 8.0 | 0.00 | 0.00 | 0.00 | 80 | 1014.9 |
| 20260505232819 | 59 | 291 | 2.0 | 6.0 | 0.00 | 0.00 | 0.00 | 79 | 1015.0 |
| 20260505232317 | 59 | 289 | 5.0 | 7.0 | 0.00 | 0.00 | 0.00 | 80 | 1015.0 |
| 20260505231814 | 59 | 245 | 6.0 | 8.0 | 0.00 | 0.00 | 0.00 | 79 | 1014.9 |
| 20260505231312 | 59 | 285 | 2.0 | 10.0 | 0.00 | 0.00 | 0.00 | 80 | 1015.3 |
| 20260505230810 | 59 | 290 | 3.0 | 9.0 | 0.00 | 0.00 | 0.00 | 80 | 1015.2 |
| 20260505230307 | 60 | 300 | 2.0 | 6.0 | 0.00 | 0.00 | 0.00 | 79 | 1015.2 |
| 20260505225803 | 60 | 105 | 1.0 | 2.0 | 0.00 | 0.00 | 0.00 | 78 | 1015.2 |
| 20260505225300 | 59 | 308 | 3.0 | 9.0 | 0.00 | 0.00 | 0.00 | 79 | 1015.3 |
| 20260505224755 | 59 | 309 | 7.0 | 8.0 | 0.00 | 0.00 | 0.00 | 79 | 1015.3 |
| 20260505224253 | 59 | 312 | 5.0 | 11.0 | 0.00 | 0.00 | 0.00 | 80 | 1015.3 |
| 20260505223750 | 59 | 331 | 4.0 | 8.0 | 0.00 | 0.00 | 0.00 | 80 | 1015.3 |
| 20260505223247 | 60 | 314 | 4.0 | 9.0 | 0.00 | 0.00 | 0.00 | 80 | 1015.4 |
| 20260505222743 | 59 | 330 | 1.0 | 6.0 | 0.00 | 0.00 | 0.00 | 80 | 1015.4 |
| 20260505222239 | 59 | 251 | 2.0 | 9.0 | 0.00 | 0.00 | 0.00 | 82 | 1015.4 |
| 20260505221736 | 59 | 8 | 4.0 | 10.0 | 0.00 | 0.00 | 0.00 | 81 | 1015.4 |
| 20260505221233 | 59 | 324 | 1.0 | 7.0 | 0.00 | 0.00 | 0.00 | 82 | 1015.6 |
| 20260505220730 | 59 | 260 | 6.0 | 8.0 | 0.00 | 0.00 | 0.00 | 81 | 1015.6 |
| 20260505220227 | 59 | 258 | 5.0 | 7.0 | 0.00 | 0.00 | 0.00 | 82 | 1015.5 |
| 20260505215725 | 58 | 24 | 2.0 | 6.0 | 0.00 | 0.00 | 0.00 | 81 | 1015.7 |
| 20260505215223 | 58 | 5 | 5.0 | 6.0 | 0.00 | 0.00 | 0.00 | 83 | 1015.5 |
| 20260505214720 | 59 | 335 | 4.0 | 8.0 | 0.00 | 0.00 | 0.00 | 82 | 1015.8 |
| 20260505214218 | 58 | 290 | 2.0 | 6.0 | 0.00 | 0.00 | 0.00 | 83 | 1015.9 |
| 20260505213715 | 58 | 260 | 2.0 | 3.0 | 0.00 | 0.00 | 0.00 | 84 | 1015.7 |
| 20260505213212 | 59 | 251 | 3.0 | 8.0 | 0.00 | 0.00 | 0.00 | 82 | 1015.7 |
| 20260505212708 | 58 | 264 | 3.0 | 4.0 | 0.00 | 0.00 | 0.00 | 82 | 1015.9 |
| 20260505212206 | 58 | 343 | 4.0 | 7.0 | 0.00 | 0.00 | 0.00 | 86 | 1015.8 |
| 20260505211702 | 59 | 282 | 2.0 | 4.0 | 0.00 | 0.00 | 0.00 | 84 | 1015.8 |
| 20260505211200 | 59 | 282 | 2.0 | 4.0 | 0.00 | 0.00 | 0.00 | 84 | 1015.6 |
| 20260505210656 | 59 | 282 | 2.0 | 4.0 | 0.00 | 0.00 | 0.00 | 84 | 1015.7 |
| 20260505210153 | 59 | 282 | 2.0 | 4.0 | 0.00 | 0.00 | 0.00 | 84 | 1015.8 |
| 20260505205650 | 59 | 282 | 2.0 | 4.0 | 0.00 | 0.00 | 0.00 | 84 | 1015.8 |
| 20260505205148 | 59 | 282 | 2.0 | 4.0 | 0.00 | 0.00 | 0.00 | 84 | 1015.8 |
| 20260505204644 | 59 | 282 | 2.0 | 4.0 | 0.00 | 0.00 | 0.00 | 84 | 1015.8 |
| 20260505204143 | 59 | 282 | 2.0 | 4.0 | 0.00 | 0.00 | 0.00 | 84 | 1015.8 |
| 20260505203640 | 59 | 282 | 2.0 | 4.0 | 0.00 | 0.00 | 0.00 | 84 | 1015.7 |
| 20260505203136 | 59 | 282 | 2.0 | 4.0 | 0.00 | 0.00 | 0.00 | 84 | 1015.7 |
| 20260505202632 | 59 | 282 | 2.0 | 4.0 | 0.00 | 0.00 | 0.00 | 84 | 1015.7 |
| 20260505202128 | 59 | 282 | 2.0 | 4.0 | 0.00 | 0.00 | 0.00 | 84 | 1015.9 |
| 20260505201625 | 58 | 264 | 3.0 | 6.0 | 0.00 | 0.00 | 0.00 | 83 | 1015.8 |
| 20260505201123 | 58 | 338 | 3.0 | 5.0 | 0.00 | 0.00 | 0.00 | 83 | 1015.8 |
| 20260505200621 | 58 | 338 | 3.0 | 5.0 | 0.00 | 0.00 | 0.00 | 83 | 1015.7 |
| 20260505200118 | 58 | 338 | 3.0 | 5.0 | 0.00 | 0.00 | 0.00 | 83 | 1015.6 |
| 20260505195614 | 58 | 304 | 0.0 | 4.0 | 0.00 | 0.00 | 0.00 | 85 | 1015.8 |
| 20260505195111 | 57 | 274 | 2.0 | 2.0 | 0.00 | 0.00 | 0.00 | 84 | 1015.9 |
| 20260505194608 | 59 | 274 | 2.0 | 2.0 | 0.00 | 0.00 | 0.00 | 84 | 1015.8 |
| 20260505194104 | 58 | 286 | 1.0 | 3.0 | 0.00 | 0.00 | 0.00 | 84 | 1015.9 |
| 20260505193601 | 57 | 277 | 3.0 | 4.0 | 0.00 | 0.00 | 0.00 | 85 | 1015.8 |
| 20260505193058 | 57 | 289 | 0.0 | 6.0 | 0.00 | 0.00 | 0.00 | 86 | 1015.8 |
| 20260505192557 | 57 | 287 | 3.0 | 3.0 | 0.00 | 0.00 | 0.00 | 87 | 1015.9 |
| 20260505192054 | 56 | 324 | 4.0 | 6.0 | 0.00 | 0.00 | 0.00 | 87 | 1015.8 |
| 20260505191552 | 56 | 317 | 4.0 | 4.0 | 0.00 | 0.00 | 0.00 | 87 | 1015.8 |
| 20260505191050 | 56 | 301 | 2.0 | 3.0 | 0.00 | 0.00 | 0.00 | 87 | 1015.8 |
| 20260505190549 | 56 | 330 | 4.0 | 5.0 | 0.00 | 0.00 | 0.00 | 86 | 1015.8 |
| 20260505190046 | 56 | 270 | 2.0 | 2.0 | 0.00 | 0.00 | 0.00 | 87 | 1015.7 |
| 20260505185543 | 56 | 285 | 0.0 | 4.0 | 0.00 | 0.00 | 0.00 | 87 | 1015.6 |
| 20260505185039 | 56 | 283 | 2.0 | 3.0 | 0.00 | 0.00 | 0.00 | 87 | 1015.9 |
| 20260505184536 | 56 | 225 | 2.0 | 3.0 | 0.00 | 0.00 | 0.00 | 88 | 1015.7 |
| 20260505184033 | 55 | 195 | 4.0 | 4.0 | 0.00 | 0.00 | 0.00 | 88 | 1015.9 |
| 20260505183529 | 56 | 279 | 2.0 | 3.0 | 0.00 | 0.00 | 0.00 | 91 | 1015.8 |
| 20260505183027 | 55 | 335 | 1.0 | 3.0 | 0.00 | 0.00 | 0.00 | 90 | 1016.0 |
| 20260505182523 | 54 | 321 | 0.0 | 1.0 | 0.00 | 0.00 | 0.00 | 91 | 1016.0 |
| 20260505182020 | 54 | 323 | 2.0 | 4.0 | 0.00 | 0.00 | 0.00 | 90 | 1015.7 |
| 20260505181516 | 54 | 353 | 2.0 | 2.0 | 0.00 | 0.00 | 0.00 | 91 | 1015.9 |
| 20260505181014 | 54 | 308 | 2.0 | 2.0 | 0.00 | 0.00 | 0.00 | 91 | 1015.8 |
| 20260505180509 | 54 | 313 | 3.0 | 4.0 | 0.00 | 0.00 | 0.00 | 91 | 1015.8 |
| 20260505180008 | 53 | 2 | 2.0 | 3.0 | 0.00 | 0.00 | 0.00 | 91 | 1015.6 |
| 20260505175502 | 54 | 348 | 3.0 | 4.0 | 0.00 | 0.00 | 0.00 | 91 | 1015.6 |
| 20260505175000 | 53 | 355 | 3.0 | 3.0 | 0.00 | 0.00 | 0.00 | 92 | 1015.4 |
| 20260505174457 | 53 | 354 | 3.0 | 4.0 | 0.00 | 0.00 | 0.00 | 92 | 1015.5 |
| 20260505173953 | 53 | 307 | 1.0 | 3.0 | 0.00 | 0.00 | 0.00 | 92 | 1015.5 |
| 20260505173449 | 53 | 358 | 3.0 | 4.0 | 0.00 | 0.00 | 0.00 | 93 | 1015.5 |
| 20260505172946 | 53 | 356 | 3.0 | 4.0 | 0.00 | 0.00 | 0.00 | 93 | 1015.3 |
| 20260505172445 | 53 | 357 | 3.0 | 4.0 | 0.00 | 0.00 | 0.00 | 93 | 1015.3 |
| 20260505171944 | 53 | 22 | 3.0 | 3.0 | 0.00 | 0.00 | 0.00 | 93 | 1015.4 |
| 20260505171441 | 53 | 22 | 2.0 | 3.0 | 0.00 | 0.00 | 0.00 | 93 | 1015.3 |
| 20260505170937 | 53 | 5 | 1.0 | 3.0 | 0.00 | 0.00 | 0.00 | 93 | 1015.1 |
| 20260505170434 | 53 | 350 | 1.0 | 1.0 | 0.00 | 0.00 | 0.00 | 93 | 1015.1 |
| 20260505165930 | 53 | 350 | 2.0 | 2.0 | 0.00 | 0.00 | 0.00 | 94 | 1015.4 |
| 20260505165426 | 53 | 336 | 1.0 | 2.0 | 0.00 | 0.00 | 0.00 | 94 | 1015.4 |
| 20260505164921 | 52 | 348 | 1.0 | 2.0 | 0.00 | 0.00 | 0.00 | 94 | 1015.5 |
| 20260505164418 | 52 | 351 | 1.0 | 3.0 | 0.00 | 0.00 | 0.00 | 94 | 1015.3 |
| 20260505163916 | 52 | 307 | 0.0 | 2.0 | 0.00 | 0.00 | 0.00 | 99 | 1015.4 |
| 20260505163415 | 52 | 307 | 0.0 | 2.0 | 0.00 | 0.00 | 0.00 | 99 | 1015.4 |
| 20260505162914 | 52 | 307 | 0.0 | 2.0 | 0.00 | 0.00 | 0.00 | 99 | 1015.2 |
| 20260505162409 | 52 | 307 | 0.0 | 2.0 | 0.00 | 0.00 | 0.00 | 99 | 1015.4 |
| 20260505161906 | 52 | 307 | 0.0 | 2.0 | 0.00 | 0.00 | 0.00 | 99 | 1015.2 |
| 20260505161403 | 52 | 307 | 0.0 | 2.0 | 0.00 | 0.00 | 0.00 | 99 | 1015.5 |
| 20260505160900 | 52 | 307 | 0.0 | 2.0 | 0.00 | 0.00 | 0.00 | 99 | 1015.3 |
| 20260505160358 | 52 | 307 | 0.0 | 2.0 | 0.00 | 0.00 | 0.00 | 99 | 1015.2 |